#timestamp,LO_Frequency,Hit,StdDev 
1550484015.1,286047003.6,N
1550484016.0,286047003.6,N
1550484035.8,286047003.1,N
1550484055.6,286047005.2,N
1550484075.5,286047005.2,N
1550484095.3,286047005.2,N
1550484115.2,286047005.5,N
1550484135.9,286047005.8,N
1550484155.7,286047003.5,N
1550484175.6,286047006.0,Y
1550484195.4,286047000.6,P
1550484215.3,286046999.9,N
1550484235.1,286047000.2,N
1550484236.0,286047000.2,N
1550484255.8,286046999.7,N
1550484275.7,286047000.6,N
1550484295.5,286046999.0,N
1550484315.3,286046997.5,N
1550484335.2,286046999.4,N
1550484355.0,286047000.8,N
1550484355.9,286047000.8,N
1550484375.8,286046998.8,N
1550484395.6,286046998.8,N
1550484415.4,286046998.8,N
1550484435.3,286046998.6,N
1550484455.1,286047000.7,N
1550484475.9,286046998.5,N
1550484495.7,286047000.3,N
1550484515.5,286047001.1,N
1550484535.4,286047000.1,N
1550484555.2,286046998.6,N
1550484575.0,286046998.2,N
1550484575.9,286046998.2,N
1550484595.8,286047000.9,N
1550484615.6,286046998.8,N
1550484635.5,286046999.2,N
1550484655.3,286046997.8,N
1550484675.1,286046997.8,N
1550484695.9,286046999.1,N
1550484715.7,286046997.3,N
1550484735.5,286046999.4,N
1550484755.4,286046997.1,N
1550484775.2,286046999.5,N
1550484795.1,286047000.6,N
1550484796.0,286047000.6,N
1550484815.8,286047002.3,N
1550484835.6,286047002.4,N
1550484855.5,286046998.6,N
1550484875.3,286046999.6,N
1550484895.1,286046998.5,N
1550484915.9,286046998.6,N
1550484935.7,286046999.3,N
1550484955.6,286046998.7,N
1550484975.4,286046996.9,N
1550484995.2,286046997.0,N
1550485015.1,286046999.2,N
1550485016.0,286046999.2,N
1550485035.8,286046997.2,N
1550485055.7,286046998.0,N
1550485075.5,286046997.4,N
1550485095.3,286046999.3,N
1550485115.2,286046998.3,N
1550485135.0,286046998.4,N
1550485135.9,286046998.4,N
1550485155.8,286046996.9,N
1550485175.6,286046996.7,N
1550485195.4,286046996.5,N
1550485215.3,286046999.5,N
1550485235.1,286046996.9,N
1550485255.8,286046996.9,N
1550485275.7,286046997.5,N
1550485295.5,286046997.5,N
1550485315.4,286046995.3,Y
1550485335.2,286046999.1,P
1550485355.0,286046999.0,P
1550485355.9,286046999.0,P
1550485375.8,286046998.6,Y
1550485395.6,286046999.8,P
1550485415.5,286047000.5,N
1550485435.3,286047003.9,P
1550485455.1,286047002.3,N
1550485475.9,286047004.1,N
1550485495.7,286047001.9,N
1550485515.5,286047002.5,N
1550485535.4,286047002.8,N
1550485555.2,286046999.9,N
1550485575.0,286046999.8,N
1550485576.0,286046999.8,N
1550485595.8,286047001.5,N
1550485615.6,286047004.1,N
1550485635.5,286046999.8,N
1550485655.3,286047000.0,N
1550485675.1,286047002.0,N
1550485695.9,286047002.3,N
1550485715.7,286047000.2,N
1550485735.6,286047000.4,N
1550485755.4,286046998.2,N
1550485775.2,286047001.0,N
1550485795.1,286047002.2,N
1550485796.0,286047002.2,N
1550485815.8,286047002.5,N
1550485835.9,286047004.4,N
1550485855.7,286047004.3,N
1550485875.6,286047004.2,N
1550485895.4,286047001.5,N
1550485915.2,286047001.9,N
1550485935.1,286047004.2,N
1550485936.0,286047004.2,N
1550485955.8,286047004.4,N
1550485975.7,286047005.8,Y
1550485995.5,286047002.3,P
1550486015.3,286047000.2,N
1550486035.2,286046999.7,N
1550486055.0,286046998.6,N
1550486055.9,286046998.6,N
1550486075.8,286046997.0,N
1550486095.6,286046996.9,N
1550486115.4,286046998.9,N
1550486135.3,286046998.7,N
1550486155.1,286046999.5,N
1550486175.8,286046998.5,N
1550486195.7,286046998.9,N
1550486215.5,286046998.5,N
1550486235.3,286046998.2,N
1550486255.2,286047002.7,N
1550486275.0,286047003.9,N
1550486275.9,286047003.9,N
1550486295.8,286047002.8,N
1550486315.6,286046999.8,N
1550486335.4,286046998.1,N
1550486355.3,286046999.0,N
1550486375.1,286046998.5,N
1550486395.8,286046999.0,N
1550486415.4,286046998.4,N
1550486435.3,286046998.8,N
1550486455.1,286047000.4,N
1550486475.9,286047002.0,N
1550486495.7,286047002.6,N
1550486515.5,286047000.3,N
1550486535.4,286047000.1,N
1550486555.2,286047000.4,N
1550486575.0,286047000.6,N
1550486575.9,286047000.6,N
1550486595.8,286046998.8,N
1550486615.6,286046998.1,N
1550486635.5,286047001.1,N
1550486655.3,286046998.8,N
1550486675.1,286046999.4,N
1550486695.9,286046999.1,N
1550486715.7,286046998.9,N
1550486735.5,286046997.4,N
1550486755.4,286046997.5,N
1550486775.2,286046998.5,N
1550486795.1,286046998.1,N
1550486796.0,286046998.1,N
1550486815.8,286047002.0,N
1550486835.6,286046999.7,N
1550486855.5,286047001.1,N
1550486875.3,286047002.4,N
1550486895.1,286047002.6,N
1550486915.9,286046999.8,N
1550486935.7,286047002.0,N
1550486955.6,286047002.6,N
1550486975.4,286047001.7,N
1550486995.2,286046999.8,N
1550487015.1,286046999.9,N
1550487016.0,286046999.9,N
1550487035.8,286047000.4,N
1550487055.7,286047000.7,N
1550487075.5,286047002.8,N
1550487095.3,286046999.7,N
1550487115.2,286047000.4,N
1550487135.0,286047000.7,N
1550487135.9,286047000.7,N
1550487155.8,286047001.1,N
1550487175.6,286047000.8,N
1550487195.4,286047000.4,N
1550487215.3,286047004.3,N
1550487235.1,286046999.7,N
1550487255.8,286047003.9,N
1550487275.7,286047004.2,N
1550487295.5,286047003.4,N
1550487315.4,286047006.0,Y
1550487335.2,286047004.2,P
1550487355.0,286047001.8,N
1550487355.9,286047001.8,N
1550487375.8,286046999.8,N
1550487395.6,286046998.4,N
1550487415.5,286046997.1,N
1550487435.3,286046997.5,N
1550487455.1,286046995.7,N
1550487475.9,286046997.5,N
1550487495.7,286046998.3,N
1550487515.5,286046997.2,N
1550487535.4,286046995.0,N
1550487555.2,286046995.1,N
1550487575.1,286046995.1,N
1550487576.0,286046995.1,N
1550487595.8,286046997.8,N
